RH
17 20 14 12 15 12 10 9 8 9 11 14 12 14 14 13 18 29 32 30 24 32 52 38 35 35 43 52 64 65 68 68 58 59 58 54 53 50 51 52 53 53 51 68 66 60 58 66 70
19 12 13 11 13 10 9 8 8 9 14 17 16 16 14 22 22 27 29 34 27 38 55 54 38 37 41 49 60 69 69 66 59 58 57 54 54 52 53 55 55 54 55 60 67 63 61 63 69
18 12 11 9 9 11 10 8 9 15 18 15 15 18 19 29 30 30 37 35 30 40 54 55 42 41 42 46 54 67 69 66 62 61 55 55 54 54 56 58 59 55 51 61 70 64 62 62 63
9 8 8 9 8 10 8 9 10 13 20 20 17 20 29 38 35 39 36 27 28 39 49 64 44 44 44 46 53 64 68 66 66 62 54 55 54 55 59 62 62 63 59 54 64 74 74 70 77
7 7 8 6 8 9 7 7 10 14 18 18 18 20 25 37 42 40 35 25 30 39 57 67 46 47 46 46 54 63 67 68 68 57 55 55 55 57 61 65 68 67 67 59 53 56 67 75 76
6 5 7 5 6 7 7 7 7 16 14 17 18 20 36 37 38 42 34 30 35 43 52 87 54 50 49 48 50 62 70 68 59 55 57 57 60 63 66 70 75 77 71 64 63 63 60 58 57
7 6 5 4 6 8 9 8 8 8 11 13 18 20 26 25 37 42 37 37 44 51 59 84 83 60 54 53 52 53 56 56 57 58 59 62 66 70 70 74 79 85 84 79 73 70 68 67 66
6 5 5 4 5 8 9 8 7 8 8 7 14 19 23 24 34 45 42 39 44 55 63 77 81 85 84 78 61 59 58 59 61 63 64 67 72 76 78 85 87 87 89 85 81 78 74 71 69
5 6 4 4 5 8 9 9 8 8 7 7 8 15 20 22 30 36 41 36 38 52 60 71 75 79 78 77 83 72 70 69 71 73 74 77 88 89 90 87 89 82 88 87 86 83 78 74 70
6 6 5 6 6 7 8 9 8 8 7 7 7 8 19 22 22 24 29 34 36 43 50 60 67 70 72 60 79 87 89 88 90 89 90 94 81 77 76 83 85 84 86 86 82 79 77 75 74
7 7 8 7 9 9 8 8 6 8 8 6 9 10 9 10 16 20 20 22 32 39 42 51 64 67 64 48 65 66 65 70 76 79 83 83 78 80 79 82 91 92 84 89 80 84 85 75 71
11 9 8 8 11 10 10 8 8 7 7 6 10 11 10 10 10 16 18 19 24 36 40 49 61 68 68 53 60 56 56 60 71 79 90 83 81 86 75 79 83 88 84 87 85 81 72 74 73
11 7 10 9 11 11 10 10 9 8 6 9 11 12 12 11 11 12 16 18 23 32 40 48 58 66 70 63 62 59 58 66 72 87 85 85 85 84 86 83 82 78 77 58 55 52 56 61 60
17 14 12 11 10 9 11 10 10 9 10 11 13 13 13 13 13 15 16 20 25 32 40 48 67 68 70 68 71 78 74 71 90 96 95 92 95 96 96 91 92 68 61 58 56 64 59 61 72
16 17 10 10 10 10 12 12 11 9 12 13 12 14 14 14 15 15 20 24 26 33 39 51 66 77 74 78 85 77 86 97 92 92 98 99 98 90 85 84 79 72 70 74 68 70 62 63 77
17 14 16 9 10 12 14 12 10 12 15 14 13 14 15 15 16 20 24 23 28 31 41 65 75 86 89 93 94 84 97 96 95 98 96 96 94 76 75 62 81 75 73 71 65 60 55 69 79
17 16 13 12 11 12 15 16 11 12 14 16 16 16 17 18 17 25 31 30 25 27 44 80 89 97 95 99 100 100 99 99 99 98 92 84 78 67 60 71 76 75 77 73 69 67 65 65 95
13 15 15 16 13 18 18 17 14 13 15 18 18 18 19 21 23 33 42 44 32 26 56 90 88 100 100 100 100 100 98 98 94 88 83 70 67 61 55 60 84 88 77 74 72 70 66 62 86
19 19 17 13 12 19 22 20 16 15 16 18 20 20 21 22 24 40 60 64 65 79 86 97 99 100 100 100 100 100 99 99 100 99 88 72 65 59 52 56 66 71 77 75 79 74 72 66 90
24 23 21 17 16 22 23 22 17 16 17 18 20 21 20 22 30 47 69 82 89 98 99 99 99 100 100 99 99 100 99 99 94 91 80 68 63 61 56 69 68 69 54 72 81 76 71 65 82
26 26 24 23 21 23 25 25 20 16 19 20 22 20 23 27 36 50 71 83 92 98 99 100 100 100 100 100 99 99 94 94 86 82 72 74 78 71 59 60 56 61 68 76 83 81 77 70 66
30 21 26 27 28 31 20 30 19 22 23 23 24 23 26 29 39 49 64 77 92 100 100 100 99 99 98 93 88 84 72 75 86 81 79 80 83 66 61 70 79 91 82 79 78 77 75 69 63
32 27 30 29 30 29 26 29 20 18 23 22 24 26 29 30 36 47 57 70 83 96 97 99 99 99 93 83 74 74 71 76 80 74 75 72 78 74 77 79 77 75 69 74 73 71 73 65 66
28 34 32 32 33 43 30 27 20 17 19 20 23 27 30 31 38 46 56 63 78 82 87 96 96 89 80 75 72 67 67 58 61 67 72 70 69 71 71 72 73 72 69 72 72 74 74 70 65
33 37 45 43 42 41 21 24 23 20 17 19 24 26 28 31 35 40 43 50 68 80 82 82 71 64 63 61 62 62 60 56 54 59 54 54 55 60 69 70 72 67 70 70 69 72 71 70 66
37 34 36 43 38 28 21 33 22 18 18 18 20 25 27 30 31 31 34 42 53 63 65 59 52 52 58 60 57 56 55 52 48 52 47 51 49 52 65 70 69 67 68 70 72 69 70 71 73
36 42 28 35 33 50 29 24 26 24 24 21 22 25 28 29 28 28 30 35 41 45 50 48 40 39 45 50 53 54 57 54 48 53 59 54 57 56 68 69 70 69 69 72 72 70 69 73 73
30 28 50 46 61 57 30 25 22 31 30 24 25 26 25 26 26 26 26 30 33 35 40 45 41 37 39 46 49 50 53 54 56 60 62 59 61 66 63 69 69 69 71 72 73 69 69 72 70
36 38 36 36 40 44 40 27 21 30 28 28 26 24 23 25 24 25 24 27 30 33 36 48 51 46 44 49 51 52 54 56 59 59 60 63 65 67 66 65 68 67 68 72 73 72 67 70 69
29 35 36 52 50 48 47 42 22 21 24 24 23 22 20 22 22 21 22 25 27 29 32 37 41 44 46 49 54 57 58 58 60 61 61 65 66 64 64 64 67 65 65 68 72 72 66 70 69
Wind_Speed
8 6 7 9 7 7 4 7 3 8 7 6 4 9 12 12 13 5 3 6 13 20 24 28 24 22 19 17 20 22 22 21 21 20 18 16 14 13 12 12 11 11 11 10 10 12 13 14 15
6 5 9 7 8 12 8 3 5 7 6 4 5 1 3 13 11 9 6 6 14 19 21 22 24 21 19 17 19 22 22 21 21 20 18 16 14 13 12 11 11 10 10 10 10 11 13 14 13
6 7 10 5 11 9 10 7 5 8 6 6 4 3 4 9 10 5 5 8 15 17 18 20 24 21 20 18 19 22 23 23 22 20 18 16 14 12 12 11 10 10 10 10 10 10 11 12 12
7 7 6 9 13 9 12 7 3 8 5 1 5 8 9 10 4 7 6 13 17 16 16 18 25 23 21 20 19 21 23 22 21 19 17 16 14 13 12 11 11 10 9 10 10 11 10 10 8
12 8 12 13 4 4 6 5 5 2 4 2 3 6 7 12 8 6 9 14 15 16 16 17 27 25 23 21 20 21 22 22 20 19 17 16 14 13 12 11 11 10 9 9 10 10 10 9 7
8 5 12 13 9 7 6 5 6 4 3 4 5 4 9 9 7 6 10 13 13 14 13 14 27 25 24 22 21 21 21 21 20 18 17 15 14 13 11 11 10 10 9 9 9 9 9 8 8
12 9 16 11 10 8 7 4 6 3 2 7 4 5 9 11 8 6 10 13 14 14 14 15 21 24 23 22 21 20 21 21 20 19 17 15 13 12 12 11 11 10 9 9 9 8 8 8 8
8 7 14 10 3 8 5 2 1 5 10 3 5 1 7 6 4 5 9 13 14 14 15 16 17 17 17 19 20 20 20 20 19 18 16 15 13 12 12 11 11 11 11 10 9 8 8 8 8
6 9 10 8 3 9 4 3 8 2 6 4 1 4 7 2 1 5 8 13 15 15 15 16 17 17 17 16 17 19 19 18 17 16 16 15 11 11 11 11 13 11 11 9 9 8 8 8 9
9 9 7 10 6 3 2 2 4 5 5 7 4 2 4 5 7 8 10 13 16 17 16 16 16 16 17 16 15 15 14 13 13 13 14 13 13 13 14 14 13 12 11 11 10 10 10 10 11
2 10 9 5 4 4 4 6 5 8 10 3 7 9 7 9 9 11 13 13 16 17 17 16 16 16 16 15 13 15 14 14 13 14 14 13 13 12 13 11 10 12 12 10 11 11 11 12 12
6 2 3 2 2 5 7 9 10 9 10 4 6 5 9 9 9 11 12 11 10 15 18 16 15 15 15 13 13 13 13 13 12 12 11 13 12 10 12 13 12 13 13 9 12 14 13 7 10
10 7 3 5 7 9 10 12 11 12 8 3 3 6 7 8 10 11 10 9 9 13 16 17 16 15 15 13 12 11 11 10 10 10 12 11 10 11 10 11 11 9 7 7 6 7 6 6 9
4 7 10 8 10 9 9 11 4 7 3 8 4 5 5 6 9 10 7 7 8 10 16 17 17 15 14 14 12 11 10 8 7 7 5 6 3 4 8 11 7 4 1 2 5 3 4 2 2
7 11 10 13 11 8 4 14 17 8 5 8 7 3 5 4 6 8 8 6 8 8 10 21 19 16 15 14 14 12 11 16 14 12 9 6 7 13 9 24 24 8 5 2 3 3 6 3 0
9 9 11 8 8 8 5 11 10 9 3 10 5 6 5 4 2 5 6 6 8 8 12 17 20 18 14 14 13 12 16 17 17 16 14 6 3 3 5 4 6 7 7 3 4 4 3 2 3
11 11 14 10 10 6 9 10 1 8 8 8 10 7 3 5 1 6 7 5 4 9 14 19 18 15 16 15 14 17 18 16 15 15 14 13 11 12 9 12 4 7 7 2 2 2 3 4 7
12 13 10 9 6 8 12 16 13 13 8 7 8 5 4 2 2 7 9 8 2 6 15 16 14 15 19 18 20 19 19 18 18 16 16 17 13 10 13 13 7 7 3 1 3 2 4 5 9
14 14 16 16 11 5 15 19 15 9 9 11 7 4 3 3 5 10 11 10 11 14 16 13 15 19 22 24 24 23 22 16 11 9 12 13 11 11 10 11 12 7 4 1 2 3 3 6 11
13 15 16 16 15 6 16 19 15 11 10 6 8 7 4 4 8 8 10 10 11 12 13 15 18 22 24 24 23 14 14 10 9 10 13 12 11 8 11 11 10 9 7 4 5 6 5 11 12
14 16 16 16 6 13 18 19 24 11 7 8 7 4 5 4 7 8 9 9 9 9 10 15 18 20 22 24 18 19 13 11 13 13 10 9 8 8 11 11 10 10 11 12 10 9 7 10 15
16 13 13 15 11 11 2 12 5 15 13 13 10 9 7 9 9 8 10 10 9 8 9 12 16 19 23 17 17 19 13 12 9 9 7 7 7 10 8 6 4 5 4 5 6 6 7 11 16
11 4 8 12 14 15 18 9 16 18 17 15 12 10 9 7 9 10 11 12 11 10 11 13 18 22 21 14 13 13 7 6 7 9 9 8 8 8 6 5 5 5 4 3 3 4 5 10 12
3 7 8 9 10 14 17 16 12 15 15 15 14 12 10 10 10 11 12 14 12 11 14 16 18 17 15 13 10 9 10 10 10 10 11 9 8 8 8 7 5 2 1 1 2 4 6 8 9
13 11 6 8 10 12 12 13 16 7 6 18 16 13 11 11 12 12 13 15 16 14 16 16 17 15 13 11 11 10 10 8 8 10 11 11 11 10 10 9 7 4 4 4 4 5 6 6 7
21 19 9 12 12 14 10 8 11 1 12 14 16 14 14 13 11 12 13 16 18 18 18 16 15 14 12 10 9 9 9 10 8 9 8 9 7 7 7 8 6 4 4 5 5 5 5 4 5
18 21 18 18 8 6 10 9 8 7 12 15 17 16 15 14 14 13 14 16 18 18 17 16 14 13 11 10 10 10 10 9 9 7 8 7 7 7 11 11 10 8 8 8 7 6 7 5 5
25 13 14 11 11 18 13 19 15 18 17 18 19 18 17 16 15 14 14 16 17 17 16 13 11 11 11 11 12 11 11 10 9 10 10 10 11 11 11 10 9 9 9 9 8 8 8 7 6
17 17 14 14 14 9 15 14 11 20 20 21 20 19 18 17 16 15 15 18 17 17 16 15 14 13 13 13 12 11 11 11 11 11 11 10 8 7 8 10 11 11 11 10 10 10 9 9 7
21 19 21 10 19 19 15 17 6 4 16 18 20 20 18 17 17 15 16 18 18 18 17 16 14 14 14 13 13 13 12 11 10 8 7 7 9 10 10 11 11 12 12 13 13 12 10 10 9
Wind_Direction
303 287 259 259 246 230 169 102 71 121 143 62 44 6 21 32 13 33 94 145 160 160 164 168 168 166 168 168 175 182 182 180 177 175 171 166 158 150 147 140 133 125 121 119 120 122 124 123 123
284 270 246 268 251 224 107 69 64 51 60 97 82 309 48 68 36 99 126 150 156 158 164 166 170 168 168 169 174 182 184 182 179 176 174 170 163 158 154 149 141 133 127 126 126 130 132 130 130
281 256 265 237 249 332 98 62 55 100 117 145 170 19 357 40 53 41 43 148 155 156 163 173 171 171 170 172 176 182 186 184 181 179 177 174 169 167 163 158 152 145 141 138 136 137 138 138 137
260 205 241 248 230 43 54 53 1 124 131 304 356 121 107 44 31 27 111 144 151 155 163 180 176 176 176 177 179 181 185 186 182 182 181 180 177 175 173 168 161 156 153 151 150 147 147 150 150
237 260 258 232 120 107 97 53 29 104 90 38 315 90 89 58 63 74 125 149 154 157 153 177 181 180 181 180 181 183 185 185 185 185 186 186 185 185 182 176 174 169 169 166 164 165 166 171 172
254 264 251 230 166 135 94 41 44 62 94 51 221 327 76 73 53 90 139 152 157 161 164 171 183 183 183 184 184 184 185 187 188 189 190 192 194 193 189 186 184 183 185 182 179 181 182 188 189
252 265 264 306 122 166 79 344 42 351 232 50 351 281 98 61 56 108 148 159 163 168 169 169 176 184 186 187 188 189 190 190 190 191 194 200 201 201 200 201 195 194 197 202 195 195 201 203 209
279 273 272 250 205 116 101 322 60 7 55 320 338 43 84 58 86 135 160 171 171 171 171 171 176 178 181 188 192 194 195 195 195 196 199 202 205 209 210 209 210 208 207 210 210 212 214 221 232
261 258 252 234 222 99 98 283 96 326 284 300 354 348 31 9 154 178 181 186 181 180 177 174 175 179 181 185 194 195 198 198 199 200 202 203 201 217 223 220 226 220 219 221 226 227 232 242 247
247 260 354 35 34 75 163 233 337 287 252 294 246 112 182 271 258 246 209 205 198 188 183 179 178 179 182 186 189 190 196 197 198 201 210 201 210 212 220 208 212 225 217 222 230 236 239 240 253
241 267 29 89 26 326 308 276 290 278 284 271 322 307 303 287 257 257 254 232 202 199 191 187 184 182 184 187 183 189 195 201 207 208 208 209 218 220 220 223 213 213 219 222 232 237 241 251 263
258 213 277 39 192 276 278 302 290 282 278 323 278 307 288 289 274 248 250 248 225 193 194 190 189 185 188 189 192 193 197 203 197 208 207 210 220 222 222 225 221 218 219 224 227 238 240 260 278
243 268 247 249 247 255 274 266 271 268 259 209 269 277 297 311 305 272 247 254 216 196 191 185 189 191 192 190 194 201 201 197 213 200 207 216 225 235 236 237 227 220 207 239 252 253 294 277 278
27 289 272 255 254 250 248 268 228 203 165 244 189 282 303 314 327 296 258 243 236 200 179 187 188 197 194 193 184 186 193 183 155 154 190 226 250 311 315 307 288 350 359 315 273 293 255 222 355
273 274 253 234 238 230 251 248 217 219 212 244 214 183 298 312 337 345 321 286 214 214 197 188 185 191 195 193 189 184 165 154 159 166 164 144 137 64 56 17 2 339 314 306 249 231 249 234 42
256 247 267 115 182 168 223 282 164 164 206 271 278 273 267 283 320 45 6 309 267 223 188 165 171 182 194 185 179 180 165 169 165 168 178 179 134 123 26 139 337 323 313 268 234 231 231 89 131
210 262 233 193 190 253 213 284 299 186 242 268 274 276 305 287 287 20 0 322 268 238 174 159 166 177 185 174 184 164 158 154 156 148 149 165 185 182 190 134 172 254 250 266 252 191 191 179 110
255 227 224 255 171 219 262 256 261 259 263 250 273 268 244 263 50 40 23 9 15 200 143 148 161 170 184 180 151 141 144 149 148 150 151 152 167 159 137 138 174 217 206 146 271 249 236 193 137
297 277 277 282 272 283 266 265 262 252 239 233 229 226 193 193 104 59 45 40 68 82 116 134 152 171 173 152 146 143 144 148 161 167 169 152 170 170 152 160 184 178 147 123 237 242 241 219 136
244 258 264 270 268 296 266 267 260 236 224 219 214 196 188 141 93 75 66 73 80 96 122 146 163 168 166 162 155 146 139 141 151 165 169 161 166 177 173 172 169 176 157 176 231 242 241 255 185
238 255 265 270 248 228 258 272 247 212 181 194 201 174 141 111 107 98 90 90 96 102 122 147 160 167 161 152 144 140 141 154 166 175 158 172 177 191 188 179 179 188 185 176 200 219 223 253 245
252 248 255 267 255 263 88 268 152 150 185 196 183 171 142 130 115 111 112 104 100 103 120 145 157 162 156 154 160 167 174 171 186 166 163 168 187 192 187 214 230 214 205 183 201 203 219 230 252
258 296 248 253 252 262 257 244 271 171 186 193 183 164 146 131 119 118 116 117 119 129 137 146 152 158 161 163 164 171 174 173 162 170 171 183 186 189 198 204 199 199 193 192 206 226 239 239 245
235 221 233 246 252 250 250 254 249 207 205 169 170 168 154 144 126 121 127 126 124 130 134 140 147 154 161 167 180 170 167 156 162 169 178 188 193 194 194 192 197 192 218 250 241 228 241 246 252
196 200 215 230 221 242 260 230 233 106 173 162 172 166 157 151 143 145 143 132 132 137 141 147 153 157 157 159 164 169 167 173 169 173 190 179 185 191 192 193 191 195 196 200 203 215 232 243 255
201 203 217 224 246 261 198 227 243 310 151 156 168 164 161 158 157 150 140 143 143 147 154 158 158 155 165 170 178 183 182 187 197 198 191 204 206 198 177 206 206 204 204 214 214 227 236 241 252
195 224 235 267 261 271 256 195 181 162 159 167 170 174 174 169 169 160 155 154 152 154 158 163 165 164 172 184 196 198 199 204 205 198 200 210 210 203 201 206 207 208 210 212 217 239 241 239 249
237 203 219 229 238 237 244 248 261 172 177 184 188 186 182 179 177 169 170 169 166 163 162 169 180 186 186 199 209 209 210 210 210 209 211 211 216 211 209 216 223 228 225 221 222 228 237 234 242
203 220 219 221 227 236 251 257 330 164 192 195 198 197 190 186 184 181 184 183 180 179 175 185 190 200 209 208 215 214 215 209 210 216 217 219 222 227 230 231 234 236 238 233 228 231 234 231 240
206 208 210 213 217 232 260 263 117 194 190 195 199 197 196 194 194 190 195 191 191 192 192 194 205 215 223 222 220 217 213 210 211 220 220 214 216 222 230 232 237 240 238 241 238 230 230 232 231